Hourly Data Report for May 03, 2012

All times are specified in Local Standard Time (LST). Add 1 hour to adjust for Daylight Saving Time where and when it is observed.

OTTAWA INTL A
ONTARIO

45°19'00.000" N
75°40'00.000" W
114.90 m
6106001
71628
YOW

Download Data

Hourly Data (May 2012)
Hourly Data Report for May 3, 2012
Temp Definition
°C
Dew Point Temp Definition
°C
Rel Hum Definition
%
Wind Dir Definition
10's deg

Wind Spd Definition
km/h
Visibility Definition
km
Stn Press Definition
kPa
Hmdx Definition


Wind Chill Definition


Weather Definition


TIME
00:00 Legend Double Dagger 10.8 10.2 96 7 12 9.7 100.14     Rain,Fog
01:00 Legend Double Dagger 10.6 10.3 98 5 10 6.4 100.14     Rain,Fog
02:00 Legend Double Dagger 10.6 10.3 98 5 10 4.8 100.12     Fog
03:00 Legend Double Dagger 10.6 10.5 99 5 14 4.8 100.16     Fog
04:00 Legend Double Dagger 10.6 10.5 99 5 13 2.4 100.21     Fog
05:00 Legend Double Dagger 10.5 10.4 99 7 13 2.4 100.23     Drizzle,Fog
06:00 Legend Double Dagger 10.7 10.6 99 6 10 1.2 100.29     Drizzle,Fog
07:00 Legend Double Dagger 11.0 10.9 99 7 13 1.2 100.36     Drizzle,Fog
08:00 Legend Double Dagger 11.1 11.0 99 5 8 0.8 100.47     Drizzle,Fog
09:00 Legend Double Dagger 11.9 11.9 100 7 12 0.6 100.42     Drizzle,Fog
10:00 Legend Double Dagger 12.7 12.6 99 8 12 1.6 100.44     Fog
11:00 Legend Double Dagger 12.7 12.2 97 7 5 4.8 100.48     Fog
12:00 Legend Double Dagger 13.6 12.7 94 12 5 8.1 100.49     Fog
13:00 Legend Double Dagger 14.5 12.9 90 0 5 10.0 100.44     Cloudy
14:00 Legend Double Dagger 15.0 13.4 90 9 9 10.0 100.36     LegendNANA
15:00 Legend Double Dagger 14.7 13.1 90 8 10 10.0 100.23     LegendNANA
16:00 Legend Double Dagger 14.9 13.3 90 9 7 10.0 100.28     Cloudy
17:00 Legend Double Dagger 14.7 13.4 92 8 10 10.0 100.28     LegendNANA
18:00 Legend Double Dagger 14.5 13.6 94 8 13 8.1 100.19     Fog
19:00 Legend Double Dagger 14.6 13.5 93 9 4 8.1 100.20     Fog
20:00 Legend Double Dagger 13.8 13.0 95 10 9 10.0 100.08     LegendNANA
21:00 Legend Double Dagger 13.9 13.3 96 34 4 6.4 100.17     Moderate Rain,Fog
22:00 Legend Double Dagger 13.3 13.2 99 11 18 6.4 99.95     Fog
23:00 Legend Double Dagger 13.6 13.5 99 8 16 4.8 99.83     Fog

Notes on Data Quality.

Legend

  • E = Estimated
  • M = Missing
  • NA = Not Available
  • ‡ = Partner data that is not subject to review by the National Climate Archives
Date modified: